Starlink 11310

operational
NORAD ID: 61212 Int'l Des: 2024-171 Owner: SPXS Country: US Constellation: starlink
LEOCIRCULAR

关于 Starlink 11310

正在加载描述...

实时位置

正在加载3D地球...

即将过境

高度历史

Altitude vs Time

uPlot chart will show altitude changes over time

两行轨道根数

1 61212U 24171N 25258.46063065 .00000820 00000-0 11627-4 0 9990
2 61212 53.1575 320.3218 0001461 76.9469 283.1712 15.69723620 56873
Epoch: Sep 15, 2025 • Age: 14 hours

当前状态

高度 362.7 km
速度 7.70 km/s
星下点 41.67°N, 11.92°W
发射日期 Sep 20, 2024
运行时间 0.9 years
类型 internet

技术详情

分类 Payload
质量 960.00 kg
干质量 910.00 kg
总质量 960.00 kg
长度 0.30 m
直径 4.10 m
跨度 29.00 m
形状 Box + pan
制造商 SPXS
平台类型 Starlink V2MD
阶段状态 In Orbit
所有者/国家 SPXS/US

大型星座

Loading constellations...